星链-30213 (STARLINK-30213 )

导读 | 星芒AI

STARLINK-30213 是 SpaceX Starlink 卫星互联网项目中的一颗低轨卫星,属于第三代星链卫星(v1.5)。该卫星于 2023 年发射,旨在为全球用户提供高速、低延迟的宽带互联网服务。它运行在约 550 公里的轨道高度,采用先进的通信技术,支持更广的覆盖和更高的数据传输效率。Starlink 项目通过部署大量此类卫星,构建全球性卫星网络,尤其服务于偏远和网络基础设施薄弱的地区。

基本信息
目录编号:
57504
目录名称:
STARLINK-30213
国际标识:
2023-113K
轨道中心:
EARTH
卫星名称:
星链-30213
卫星全名:
星链-30213 (STARLINK-30213 )
卫星状态:
在轨 (已飞行815 天)
发射日期:
2023-08-07 UTC
国别 :
美国 (US)
星等 :
--
轨道信息
数据来源 国际轨道数据
星历时间: 2025-10-29T22:19:17+0800
1天前
查看轨道信息
半长轴: 6937.217km
偏心率: 0.000131
轨道倾角: 43.003°
近地点辐角 278.620°
升交点赤经 10.223°
平近点角 81.449°
近地点: 558.173km
远地点: 559.991km
周期: 95.838分钟
每日圈数: 15.025361
详细信息
固有亮度:
5
最大亮度:
0.3
卫星平台:
Starlink v2.0 mini
覆盖范围:
全球
运营商:
太空探索技术公司
运营商所在国:
美国
制造商(研发单位):
太空探索技术公司
制造商所在国:
美国
使用方式:
暂无
卫星简介
星链(Starlink)计划是由太空探索技术公司(SpaceX)提出的一个巨型低轨卫星互联网星座项目,计划在2019年至2024年间在太空搭建由约1.2万颗卫星组成的“星链”网络,其中1584颗将部署在地球上空550千米处的近地轨道,并从2020年开始工作。该卫星仍在工作。
2D轨道图
3D轨道图
轨道高度分析图
轨道倾角分析图
轨道综合分析图
查看轨道综合分析图